DW8530 Weather Reports


time (UTC)temp
C
wind
direction
speed
KPH
gust
KPH
rain 1hr
cm
rain 24hr
cm
rain mn
cm
humidity
%
barometer
mb
20260504100503 5 215 0.0 1.6 0.00 0.00 0.00 80 1009.0
20260504082003 6 0 0.0 0.0 0.00 0.00 0.00 73 1009.1
20260504081503 6 0 0.0 0.0 0.00 0.00 0.00 73 1009.2
20260504081003 6 0 0.0 0.0 0.00 0.00 0.00 73 1009.2
20260504080503 6 0 0.0 0.0 0.00 0.00 0.00 73 1009.3
20260504050503 6 0 0.0 0.0 0.00 0.00 0.00 71 1010.0
20260504050214 6 0 0.0 0.0 0.00 0.00 0.00 71 1010.0
20260504045713 6 0 0.0 0.0 0.00 0.00 0.00 71 1010.0
20260504045003 6 0 0.0 0.0 0.00 0.00 0.00 71 1010.1
20260504044503 6 194 0.0 3.2 0.00 0.00 0.00 71 1010.2
20260504044003 6 194 0.0 3.2 0.00 0.00 0.00 71 1010.2
20260504043503 6 194 0.0 3.2 0.00 0.00 0.00 71 1010.3
20260504043003 6 194 0.0 3.2 0.00 0.00 0.00 70 1010.3
20260504042503 6 194 0.0 3.2 0.00 0.00 0.00 70 1010.5
20260504042003 6 194 1.6 3.2 0.00 0.00 0.00 70 1010.5
20260504041503 6 194 0.0 3.2 0.00 0.00 0.00 70 1010.6
20260504041003 6 194 0.0 3.2 0.00 0.00 0.00 70 1010.7
20260504040503 6 0 0.0 0.0 0.00 0.00 0.00 70 1010.5
20260504040003 6 194 0.0 3.2 0.00 0.00 0.00 69 1010.5
20260504035503 6 180 1.6 4.8 0.00 0.00 0.00 69 1010.4
20260504035003 6 189 1.6 6.4 0.00 0.00 0.00 69 1010.5
20260504034503 6 227 0.0 6.4 0.00 0.00 0.00 69 1010.3
20260504034003 6 288 0.0 3.2 0.00 0.00 0.00 68 1010.3
20260504033503 6 288 1.6 3.2 0.00 0.00 0.00 68 1010.3
20260504033003 6 288 1.6 4.8 0.00 0.00 0.00 67 1010.2
20260504032503 6 288 0.0 4.8 0.00 0.00 0.00 66 1010.2
20260504032003 6 0 0.0 0.0 0.00 0.00 0.00 66 1010.1
20260504031503 6 0 0.0 0.0 0.00 0.00 0.00 65 1010.1
20260504031003 6 0 0.0 0.0 0.00 0.00 0.00 65 1010.0
20260504030503 6 0 0.0 0.0 0.00 0.00 0.00 64 1010.0
20260504030003 6 0 0.0 0.0 0.00 0.00 0.00 63 1009.9
20260504025503 6 0 0.0 0.0 0.00 0.00 0.00 62 1010.0
20260504025213 6 0 0.0 0.0 0.00 0.00 0.00 62 1009.9
20260504024503 7 0 0.0 0.0 0.00 0.00 0.00 60 1009.8
20260504024003 7 0 0.0 0.0 0.00 0.00 0.00 60 1009.8
20260504023503 7 0 0.0 0.0 0.00 0.00 0.00 59 1009.8
20260504023003 7 0 0.0 0.0 0.00 0.00 0.00 58 1009.9
20260504022503 7 0 0.0 0.0 0.00 0.00 0.00 57 1010.1
20260504022003 8 0 0.0 0.0 0.00 0.00 0.00 57 1010.0
20260504021503 8 0 0.0 0.0 0.00 0.00 0.00 56 1010.1
20260504021003 8 0 0.0 0.0 0.00 0.00 0.00 53 1010.0
20260504020503 8 0 0.0 0.0 0.00 0.00 0.00 52 1010.0
20260504020003 8 0 0.0 0.0 0.00 0.00 0.00 51 1010.0
20260504015503 8 0 0.0 0.0 0.00 0.00 0.00 51 1010.1
20260504015213 9 0 0.0 0.0 0.00 0.00 0.00 50 1010.0
20260504014503 9 288 0.0 1.6 0.00 0.00 0.00 49 1009.9
20260504014003 9 288 0.0 1.6 0.00 0.00 0.00 48 1010.0
20260504013714 9 288 0.0 1.6 0.00 0.00 0.00 48 1010.0
20260504013003 10 288 0.0 3.2 0.00 0.00 0.00 47 1009.9
20260504012503 10 280 1.6 4.8 0.00 0.00 0.00 47 1009.9
20260504012213 10 271 1.6 4.8 0.00 0.00 0.00 46 1009.8
20260504011503 10 264 1.6 6.4 0.00 0.00 0.00 46 1009.7
20260504011003 10 266 1.6 6.4 0.00 0.00 0.00 45 1009.8
20260504010503 10 254 1.6 6.4 0.00 0.00 0.00 44 1009.6
20260504010212 10 243 1.6 4.8 0.00 0.00 0.00 45 1009.6
20260504005503 10 240 0.0 4.8 0.00 0.00 0.00 43 1009.5
20260504005003 10 240 1.6 4.8 0.00 0.00 0.00 43 1009.5
20260504004503 10 243 1.6 3.2 0.00 0.00 0.00 43 1009.5
20260504004003 11 245 1.6 8.0 0.00 0.00 0.00 42 1009.5
20260504003503 11 252 1.6 8.0 0.00 0.00 0.00 41 1009.4
20260504003003 11 253 1.6 8.0 0.00 0.00 0.00 41 1009.3
20260504002503 11 247 1.6 8.0 0.00 0.00 0.00 40 1009.2
20260504002003 11 271 3.2 9.7 0.00 0.00 0.00 40 1009.2
20260504001503 11 275 4.8 16.1 0.00 0.00 0.00 39 1009.0
20260504001003 11 266 4.8 16.1 0.00 0.00 0.00 39 1009.0
20260504000503 11 262 3.2 9.7 0.00 0.00 0.00 38 1008.9
20260504000003 11 251 3.2 8.0 0.00 0.00 0.00 38 1008.9
20260503235503 11 249 4.8 17.7 0.00 0.00 0.00 37 1008.8
20260503235003 12 257 6.4 17.7 0.00 0.00 0.00 37 1008.8
20260503234503 12 262 4.8 11.3 0.00 0.00 0.00 37 1008.8
20260503234003 12 247 6.4 14.5 0.00 0.00 0.00 36 1008.7
20260503233503 12 247 6.4 16.1 0.00 0.00 0.00 35 1008.6
20260503233003 12 259 6.4 17.7 0.00 0.00 0.00 35 1008.5
20260503232503 12 270 6.4 17.7 0.00 0.00 0.00 34 1008.5
20260503232003 12 270 6.4 19.3 0.00 0.00 0.00 34 1008.4
20260503231503 12 257 8.0 19.3 0.00 0.00 0.00 33 1008.3
20260503231003 12 268 8.0 17.7 0.00 0.00 0.00 33 1008.3
20260503230503 12 276 6.4 17.7 0.00 0.00 0.00 33 1008.2
20260503230003 13 275 6.4 16.1 0.00 0.00 0.00 31 1008.1
20260503225503 13 286 6.4 16.1 0.00 0.00 0.00 31 1008.1
20260503225003 13 273 8.0 17.7 0.00 0.00 0.00 31 1008.0
20260503224503 13 268 8.0 19.3 0.00 0.00 0.00 31 1008.0
20260503224003 13 259 8.0 19.3 0.00 0.00 0.00 32 1007.9
20260503223503 13 242 8.0 19.3 0.00 0.00 0.00 31 1007.9
20260503223003 13 257 6.4 17.7 0.00 0.00 0.00 30 1007.8
20260503222713 13 283 8.0 17.7 0.00 0.00 0.00 31 1007.8
20260503222003 13 274 8.0 22.5 0.00 0.00 0.00 31 1007.8
20260503221503 13 260 6.4 20.9 0.00 0.00 0.00 31 1008.0
20260503221003 13 269 6.4 19.3 0.00 0.00 0.00 31 1007.8
20260503220503 13 290 6.4 19.3 0.00 0.00 0.00 31 1007.8
20260503220213 12 274 8.0 24.1 0.00 0.00 0.00 31 1007.8
20260503215503 12 249 11.3 29.0 0.00 0.00 0.00 31 1007.8
20260503215003 12 264 9.7 29.0 0.00 0.00 0.00 30 1007.8
20260503214503 13 271 8.0 17.7 0.00 0.00 0.00 32 1007.9
20260503214003 13 258 8.0 19.3 0.00 0.00 0.00 31 1007.8
20260503213503 13 261 9.7 24.1 0.00 0.00 0.00 31 1007.9
20260503213003 13 252 9.7 24.1 0.00 0.00 0.00 31 1007.8
20260503212503 13 254 8.0 22.5 0.00 0.00 0.00 31 1007.8
20260503212213 13 261 8.0 20.9 0.00 0.00 0.00 31 1007.8
20260503211503 13 252 9.7 24.1 0.00 0.00 0.00 31 1007.9
20260503211003 13 248 8.0 24.1 0.00 0.00 0.00 32 1007.9
20260503210712 13 256 6.4 17.7 0.00 0.00 0.00 32 1007.9
20260503210003 13 252 9.7 19.3 0.00 0.00 0.00 32 1007.9
20260503205503 13 274 9.7 20.9 0.00 0.00 0.00 32 1007.8
20260503205003 13 292 9.7 20.9 0.00 0.00 0.00 32 1007.9
20260503204714 13 290 8.0 20.9 0.00 0.00 0.00 32 1008.0
20260503204003 13 301 6.4 17.7 0.00 0.00 0.00 33 1008.0
20260503203503 13 302 6.4 17.7 0.00 0.00 0.00 33 1008.2
20260503203003 13 297 6.4 17.7 0.00 0.00 0.00 35 1008.1
20260503202503 12 270 8.0 22.5 0.00 0.00 0.00 34 1008.2
20260503202003 12 255 8.0 22.5 0.00 0.00 0.00 35 1008.2
20260503201503 12 257 6.4 16.1 0.00 0.00 0.00 35 1008.2
20260503201003 12 257 6.4 20.9 0.00 0.00 0.00 34 1008.4
20260503200503 12 267 6.4 20.9 0.00 0.00 0.00 34 1008.3
20260503200003 12 289 6.4 16.1 0.00 0.00 0.00 34 1008.4
20260503195503 12 289 6.4 16.1 0.00 0.00 0.00 36 1008.4
20260503195003 12 298 8.0 22.5 0.00 0.00 0.00 35 1008.5
20260503194503 12 307 8.0 22.5 0.00 0.00 0.00 37 1008.7
20260503194003 11 306 4.8 22.5 0.00 0.00 0.00 36 1008.7
20260503193713 11 306 4.8 12.9 0.00 0.00 0.00 38 1008.7
20260503193213 11 333 4.8 8.0 0.00 0.00 0.00 39 1008.9
20260503192714 11 297 6.4 14.5 0.00 0.00 0.00 38 1009.0
20260503192003 11 250 8.0 20.9 0.00 0.00 0.00 37 1009.1
20260503191713 11 261 8.0 20.9 0.00 0.00 0.00 38 1009.2
20260503191003 11 296 8.0 22.5 0.00 0.00 0.00 37 1009.2
20260503190503 11 307 6.4 22.5 0.00 0.00 0.00 36 1009.4
20260503190003 11 307 8.0 27.4 0.00 0.00 0.00 38 1009.1
20260503185503 11 302 9.7 27.4 0.00 0.00 0.00 37 1009.4
20260503185003 12 300 6.4 17.7 0.00 0.00 0.00 38 1009.4
20260503184713 11 294 4.8 14.5 0.00 0.00 0.00 39 1009.4
20260503184003 11 304 6.4 24.1 0.00 0.00 0.00 40 1009.5
20260503183504 11 304 6.4 24.1 0.00 0.00 0.00 38 1009.4
20260503183003 11 307 6.4 19.3 0.00 0.00 0.00 39 1009.7
20260503182503 11 272 9.7 25.7 0.00 0.00 0.00 40 1009.6
20260503182003 11 261 9.7 29.0 0.00 0.00 0.00 39 1009.6
20260503181504 11 284 8.0 29.0 0.00 0.00 0.00 39 1009.6
20260503181003 11 299 6.4 17.7 0.00 0.00 0.00 38 1009.5
20260503180503 11 300 6.4 17.7 0.00 0.00 0.00 38 1009.5
20260503180003 11 306 8.0 17.7 0.00 0.00 0.00 39 1009.6
20260503175503 10 305 8.0 17.7 0.00 0.00 0.00 40 1009.6
20260503175003 10 291 8.0 19.3 0.00 0.00 0.00 39 1009.7
20260503174503 10 293 9.7 19.3 0.00 0.00 0.00 38 1009.9
20260503174003 10 307 8.0 17.7 0.00 0.00 0.00 39 1009.9
20260503173503 10 312 8.0 17.7 0.00 0.00 0.00 39 1009.8
20260503173003 10 298 8.0 17.7 0.00 0.00 0.00 39 1009.9
20260503172504 10 299 6.4 20.9 0.00 0.00 0.00 39 1009.9
20260503172003 10 298 6.4 20.9 0.00 0.00 0.00 39 1009.9
20260503171503 10 288 6.4 12.9 0.00 0.00 0.00 39 1009.9
20260503171003 10 303 6.4 16.1 0.00 0.00 0.00 39 1009.8
20260503170503 10 325 8.0 24.1 0.00 0.00 0.00 39 1009.8
20260503150503 8 298 6.4 19.3 0.00 0.00 0.00 45 1010.3
20260503131214 6 297 4.8 12.9 0.00 0.00 0.00 69 1010.7
20260503130713 6 285 6.4 12.9 0.00 0.00 0.00 68 1010.7
20260503110503 4 311 3.2 9.7 0.00 0.00 0.00 78 1010.3